Location: Ahausen
(50.4985°N, 8.2722°E)
Time: 10:58:34
(UTC+00:00)

YAOGAN 1 - Pass Details

Date: 18 September 2020
Orbit: 618 x 620 km, 97.9° (Epoch: 25 October)

Event Time Altitude Azimuth Distance (km) Brightness Sun altitude
Rises 18:22:28 0° 179° (S) 2,886 5.8 -8.6°
Reaches altitude 10° 18:24:43 10° 184° (S) 1,985 5.1 -8.9°
Maximum altitude 18:28:54 49° 260° (W) 802 3.6 -9.6°
Drops below altitude 10° 18:33:08 10° 336° (NNW) 2,001 5.7 -10.2°
Sets 18:35:24 0° 342° (NNW) 2,912 6.5 -10.6°
